Time,TemperatureF,DewpointF,PressureIn,WindDirection,WindDirectionDegrees,WindSpeedMPH,WindSpeedGustMPH,Humidity,HourlyPrecipIn,Conditions,Clouds,dailyrainin,SolarRadiationWatts/m^2,SoftwareType,DateUTC
2013-01-25 00:00:00,8.0,-8.5,30.23,West,272,0.0,0.0,46,0.00,,CLR,0.00,0.00,VWS V14.01,2013-01-25 05:00:00,
2013-01-25 00:01:00,8.0,-8.5,30.23,West,274,0.0,0.0,46,0.00,,CLR,0.00,0.00,VWS V14.01,2013-01-25 05:01:00,
2013-01-25 00:03:00,8.0,-8.0,30.23,WSW,257,0.0,6.0,47,0.00,,CLR,0.00,0.00,VWS V14.01,2013-01-25 05:03:00,
2013-01-25 00:08:00,7.9,-8.1,30.22,NW,315,1.0,6.0,47,0.00,,CLR,0.00,0.00,VWS V14.01,2013-01-25 05:08:00,
2013-01-25 00:13:00,7.9,-8.1,30.21,NW,319,9.0,9.0,47,0.00,,CLR,0.00,0.00,VWS V14.01,2013-01-25 05:13:00,
2013-01-25 00:18:00,7.8,-8.2,30.21,West,275,0.0,10.0,47,0.00,,CLR,0.00,0.00,VWS V14.01,2013-01-25 05:18:00,
2013-01-25 00:23:00,7.8,-8.2,30.21,NW,307,6.0,15.0,47,0.00,,CLR,0.00,0.00,VWS V14.01,2013-01-25 05:23:00,
2013-01-25 00:28:00,7.7,-7.9,30.21,NW,305,3.0,15.0,48,0.00,,CLR,0.00,0.00,VWS V14.01,2013-01-25 05:28:00,
2013-01-25 00:33:00,7.6,-8.0,30.20,NW,305,0.0,3.0,48,0.00,,CLR,0.00,0.00,VWS V14.01,2013-01-25 05:33:00,
2013-01-25 00:38:00,7.5,-7.7,30.20,WNW,303,0.0,5.0,49,0.00,,CLR,0.00,0.00,VWS V14.01,2013-01-25 05:38:00,
2013-01-25 00:43:00,7.4,-8.2,30.21,WSW,239,0.0,3.0,48,0.00,,CLR,0.00,0.00,VWS V14.01,2013-01-25 05:43:00,
2013-01-25 00:48:00,7.3,-8.3,30.22,WNW,302,0.0,3.0,48,0.00,,CLR,0.00,0.00,VWS V14.01,2013-01-25 05:48:00,
2013-01-25 00:53:00,7.3,-8.3,30.22,WSW,246,0.0,2.0,48,0.00,,CLR,0.00,0.00,VWS V14.01,2013-01-25 05:53:00,
2013-01-25 00:58:00,7.2,-7.9,30.22,North,355,1.0,4.0,49,0.00,,CLR,0.00,0.00,VWS V14.01,2013-01-25 05:58:00,
2013-01-25 01:03:00,7.1,-7.6,30.21,West,268,0.0,2.0,50,0.00,,CLR,0.00,0.00,VWS V14.01,2013-01-25 06:03:00,
2013-01-25 01:08:00,7.1,-8.0,30.22,NW,304,0.0,9.0,49,0.00,,CLR,0.00,0.00,VWS V14.01,2013-01-25 06:08:00,
2013-01-25 01:13:00,7.1,-8.0,30.21,WNW,294,0.0,2.0,49,0.00,,CLR,0.00,0.00,VWS V14.01,2013-01-25 06:13:00,
2013-01-25 01:18:00,7.1,-8.0,30.22,NNW,339,2.0,2.0,49,0.00,,CLR,0.00,0.00,VWS V14.01,2013-01-25 06:18:00,
2013-01-25 01:23:00,7.1,-8.0,30.22,WNW,283,0.0,3.0,49,0.00,,CLR,0.00,0.00,VWS V14.01,2013-01-25 06:23:00,
2013-01-25 01:28:00,7.1,-7.6,30.22,North,360,0.0,7.0,50,0.00,,CLR,0.00,0.00,VWS V14.01,2013-01-25 06:28:00,
2013-01-25 01:33:00,7.1,-7.6,30.22,NNW,328,0.0,9.0,50,0.00,,CLR,0.00,0.00,VWS V14.01,2013-01-25 06:33:00,
2013-01-25 01:38:00,7.1,-7.6,30.23,WNW,293,5.0,9.0,50,0.00,,CLR,0.00,0.00,VWS V14.01,2013-01-25 06:38:00,
2013-01-25 01:43:00,7.1,-7.6,30.23,WNW,299,0.0,1.0,50,0.00,,CLR,0.00,0.00,VWS V14.01,2013-01-25 06:43:00,
2013-01-25 01:48:00,7.0,-7.7,30.24,NNW,331,0.0,2.0,50,0.00,,CLR,0.00,0.00,VWS V14.01,2013-01-25 06:48:00,
2013-01-25 01:53:00,7.0,-7.3,30.23,NW,304,0.0,3.0,51,0.00,,CLR,0.00,0.00,VWS V14.01,2013-01-25 06:53:00,
2013-01-25 01:58:00,7.1,-7.6,30.23,NNW,329,3.0,9.0,50,0.00,,CLR,0.00,0.00,VWS V14.01,2013-01-25 06:58:00,
2013-01-25 02:03:00,7.0,-7.3,30.23,WNW,300,2.0,4.0,51,0.00,,CLR,0.00,0.00,VWS V14.01,2013-01-25 07:03:00,
2013-01-25 02:08:00,7.1,-7.6,30.23,SW,217,0.0,11.0,50,0.00,,CLR,0.00,0.00,VWS V14.01,2013-01-25 07:08:00,
2013-01-25 02:13:00,7.1,-7.2,30.23,WNW,290,0.0,5.0,51,0.00,,CLR,0.00,0.00,VWS V14.01,2013-01-25 07:13:00,
2013-01-25 02:19:00,6.9,-7.4,30.23,NNW,333,0.0,5.0,51,0.00,,CLR,0.00,0.00,VWS V14.01,2013-01-25 07:19:00,
2013-01-25 02:24:00,6.8,-7.5,30.23,NNW,335,0.0,1.0,51,0.00,,CLR,0.00,0.00,VWS V14.01,2013-01-25 07:24:00,
2013-01-25 02:29:00,6.7,-7.6,30.23,West,260,0.0,3.0,51,0.00,,CLR,0.00,0.00,VWS V14.01,2013-01-25 07:29:00,
2013-01-25 02:34:00,6.7,-7.2,30.23,NE,53,1.0,4.0,52,0.00,,CLR,0.00,0.00,VWS V14.01,2013-01-25 07:34:00,
2013-01-25 02:39:00,6.7,-7.2,30.24,NNW,343,3.0,4.0,52,0.00,,CLR,0.00,0.00,VWS V14.01,2013-01-25 07:39:00,
2013-01-25 02:44:00,6.6,-7.3,30.24,NW,314,0.0,3.0,52,0.00,,CLR,0.00,0.00,VWS V14.01,2013-01-25 07:44:00,
2013-01-25 02:49:00,6.6,-7.3,30.24,NW,315,0.0,3.0,52,0.00,,CLR,0.00,0.00,VWS V14.01,2013-01-25 07:49:00,
2013-01-25 02:54:00,6.6,-7.3,30.24,NW,313,0.0,4.0,52,0.00,,CLR,0.00,0.00,VWS V14.01,2013-01-25 07:54:00,
2013-01-25 02:59:00,6.7,-7.2,30.24,WNW,300,0.0,4.0,52,0.00,,CLR,0.00,0.00,VWS V14.01,2013-01-25 07:59:00,
2013-01-25 03:04:00,6.6,-7.3,30.24,NNW,335,1.0,5.0,52,0.00,,CLR,0.00,0.00,VWS V14.01,2013-01-25 08:04:00,
2013-01-25 03:09:00,6.6,-7.3,30.25,West,273,0.0,5.0,52,0.00,,CLR,0.00,0.00,VWS V14.01,2013-01-25 08:09:00,
2013-01-25 03:14:00,6.5,-7.4,30.24,WNW,283,3.0,6.0,52,0.00,,CLR,0.00,0.00,VWS V14.01,2013-01-25 08:14:00,
2013-01-25 03:19:00,6.6,-7.3,30.24,SSW,201,0.0,6.0,52,0.00,,CLR,0.00,0.00,VWS V14.01,2013-01-25 08:19:00,
2013-01-25 03:24:00,6.6,-7.3,30.24,WSW,239,0.0,5.0,52,0.00,,CLR,0.00,0.00,VWS V14.01,2013-01-25 08:24:00,
2013-01-25 03:29:00,6.6,-7.7,30.24,West,268,0.0,10.0,51,0.00,,CLR,0.00,0.00,VWS V14.01,2013-01-25 08:29:00,
2013-01-25 03:34:00,6.6,-7.7,30.24,West,278,0.0,3.0,51,0.00,,CLR,0.00,0.00,VWS V14.01,2013-01-25 08:34:00,
2013-01-25 03:39:00,6.5,-7.4,30.24,WNW,288,0.0,3.0,52,0.00,,CLR,0.00,0.00,VWS V14.01,2013-01-25 08:39:00,
2013-01-25 03:44:00,6.5,-7.4,30.24,SW,230,0.0,3.0,52,0.00,,CLR,0.00,0.00,VWS V14.01,2013-01-25 08:44:00,
2013-01-25 03:49:00,6.5,-7.4,30.24,West,273,0.0,9.0,52,0.00,,CLR,0.00,0.00,VWS V14.01,2013-01-25 08:49:00,
2013-01-25 03:54:00,6.5,-7.8,30.24,WNW,300,0.0,9.0,51,0.00,,CLR,0.00,0.00,VWS V14.01,2013-01-25 08:54:00,
2013-01-25 03:59:00,6.5,-7.8,30.24,WNW,301,0.0,9.0,51,0.00,,CLR,0.00,0.00,VWS V14.01,2013-01-25 08:59:00,
2013-01-25 04:04:00,6.3,-7.6,30.24,SSW,206,0.0,2.0,52,0.00,,CLR,0.00,0.00,VWS V14.01,2013-01-25 09:04:00,
2013-01-25 04:09:00,6.2,-7.7,30.24,SW,222,0.0,2.0,52,0.00,,CLR,0.00,0.00,VWS V14.01,2013-01-25 09:09:00,
2013-01-25 04:14:00,6.1,-8.1,30.24,WSW,252,0.0,1.0,51,0.00,,CLR,0.00,0.00,VWS V14.01,2013-01-25 09:14:00,
2013-01-25 04:19:00,6.1,-7.7,30.24,WNW,287,0.0,1.0,52,0.00,,CLR,0.00,0.00,VWS V14.01,2013-01-25 09:19:00,
2013-01-25 04:24:00,6.1,-7.7,30.25,NW,323,0.0,3.0,52,0.00,,CLR,0.00,0.00,VWS V14.01,2013-01-25 09:24:00,
2013-01-25 04:29:00,6.1,-8.1,30.25,WNW,293,0.0,3.0,51,0.00,,CLR,0.00,0.00,VWS V14.01,2013-01-25 09:29:00,
2013-01-25 04:34:00,6.1,-8.1,30.25,NNW,342,0.0,6.0,51,0.00,,CLR,0.00,0.00,VWS V14.01,2013-01-25 09:34:00,
2013-01-25 04:39:00,6.1,-8.1,30.25,WSW,252,1.0,6.0,51,0.00,,CLR,0.00,0.00,VWS V14.01,2013-01-25 09:39:00,
2013-01-25 04:44:00,6.1,-8.1,30.25,WNW,295,0.0,3.0,51,0.00,,CLR,0.00,0.00,VWS V14.01,2013-01-25 09:44:00,
2013-01-25 04:49:00,6.1,-8.1,30.25,West,264,0.0,3.0,51,0.00,,CLR,0.00,0.00,VWS V14.01,2013-01-25 09:49:00,
2013-01-25 04:54:00,6.0,-8.2,30.25,NW,316,0.0,2.0,51,0.00,,CLR,0.00,0.00,VWS V14.01,2013-01-25 09:54:00,
2013-01-25 04:59:00,6.0,-8.2,30.25,West,273,0.0,4.0,51,0.00,,CLR,0.00,0.00,VWS V14.01,2013-01-25 09:59:00,
2013-01-25 05:04:00,6.0,-8.2,30.26,West,281,0.0,5.0,51,0.00,,CLR,0.00,0.00,VWS V14.01,2013-01-25 10:04:00,
2013-01-25 05:09:00,6.1,-8.1,30.26,NW,316,0.0,5.0,51,0.00,,CLR,0.00,0.00,VWS V14.01,2013-01-25 10:09:00,
2013-01-25 05:14:00,6.1,-8.1,30.26,NW,324,0.0,5.0,51,0.00,,CLR,0.00,0.00,VWS V14.01,2013-01-25 10:14:00,
2013-01-25 05:19:00,6.1,-8.1,30.26,NW,309,0.0,5.0,51,0.00,,CLR,0.00,0.00,VWS V14.01,2013-01-25 10:19:00,
2013-01-25 05:24:00,6.2,-8.4,30.27,NW,309,0.0,1.0,50,0.00,,CLR,0.00,0.00,VWS V14.01,2013-01-25 10:24:00,
2013-01-25 05:29:00,6.1,-8.1,30.27,NW,309,0.0,1.0,51,0.00,,CLR,0.00,0.00,VWS V14.01,2013-01-25 10:29:00,
2013-01-25 05:34:00,5.9,-8.3,30.26,NW,309,0.0,0.0,51,0.00,,CLR,0.00,0.00,VWS V14.01,2013-01-25 10:34:00,
2013-01-25 05:39:00,5.7,-8.1,30.26,SW,224,0.0,3.0,52,0.00,,CLR,0.00,0.00,VWS V14.01,2013-01-25 10:39:00,
2013-01-25 05:44:00,5.8,-8.0,30.27,NNW,341,0.0,2.0,52,0.00,,CLR,0.00,0.00,VWS V14.01,2013-01-25 10:44:00,
2013-01-25 05:50:00,5.9,-7.9,30.27,WSW,252,0.0,3.0,52,0.00,,CLR,0.00,0.00,VWS V14.01,2013-01-25 10:50:00,
2013-01-25 05:55:00,5.8,-8.0,30.27,WSW,256,0.0,0.0,52,0.00,,CLR,0.00,0.00,VWS V14.01,2013-01-25 10:55:00,
2013-01-25 06:00:00,5.8,-7.6,30.27,WSW,256,0.0,1.0,53,0.00,,CLR,0.00,0.00,VWS V14.01,2013-01-25 11:00:00,
2013-01-25 06:05:00,5.7,-8.1,30.27,WNW,283,0.0,4.0,52,0.00,,CLR,0.00,0.00,VWS V14.01,2013-01-25 11:05:00,
2013-01-25 06:10:00,5.8,-7.6,30.27,WNW,283,1.0,4.0,53,0.00,,CLR,0.00,0.00,VWS V14.01,2013-01-25 11:10:00,
2013-01-25 06:15:00,5.8,-7.6,30.27,WSW,245,2.0,2.0,53,0.00,,CLR,0.00,0.00,VWS V14.01,2013-01-25 11:15:00,
2013-01-25 06:20:00,5.8,-7.2,30.27,WSW,248,0.0,2.0,54,0.00,,CLR,0.00,0.00,VWS V14.01,2013-01-25 11:20:00,
2013-01-25 06:25:00,5.7,-7.0,30.27,WSW,248,0.0,0.0,55,0.00,,CLR,0.00,0.00,VWS V14.01,2013-01-25 11:25:00,
2013-01-25 06:30:00,5.5,-7.5,30.28,WSW,248,0.0,1.0,54,0.00,,CLR,0.00,0.00,VWS V14.01,2013-01-25 11:30:00,
2013-01-25 06:35:00,5.5,-7.2,30.27,NNW,329,0.0,2.0,55,0.00,,CLR,0.00,0.00,VWS V14.01,2013-01-25 11:35:00,
2013-01-25 06:40:00,5.5,-7.2,30.27,NW,311,0.0,3.0,55,0.00,,CLR,0.00,0.00,VWS V14.01,2013-01-25 11:40:00,
2013-01-25 06:45:00,5.4,-7.2,30.27,West,273,0.0,4.0,55,0.00,,CLR,0.00,0.00,VWS V14.01,2013-01-25 11:45:00,
2013-01-25 06:50:00,5.5,-7.2,30.27,WNW,298,0.0,0.0,55,0.00,,CLR,0.00,0.00,VWS V14.01,2013-01-25 11:50:00,
2013-01-25 06:55:00,5.6,-4.9,30.27,West,275,0.0,3.0,61,0.00,,CLR,0.00,0.00,VWS V14.01,2013-01-25 11:55:00,
2013-01-25 07:00:00,5.7,-7.3,30.28,NW,320,0.0,0.0,54,0.00,,CLR,0.00,5.00,VWS V14.01,2013-01-25 12:00:00,
2013-01-25 07:05:00,5.8,-7.2,30.28,WNW,300,0.0,1.0,54,0.00,,CLR,0.00,5.00,VWS V14.01,2013-01-25 12:05:00,
2013-01-25 07:10:00,5.8,-7.2,30.28,SW,233,0.0,0.0,54,0.00,,CLR,0.00,7.00,VWS V14.01,2013-01-25 12:10:00,
2013-01-25 07:15:00,5.8,-7.2,30.27,WNW,283,0.0,2.0,54,0.00,,CLR,0.00,11.00,VWS V14.01,2013-01-25 12:15:00,
2013-01-25 07:20:00,5.9,-7.2,30.28,SW,222,1.0,1.0,54,0.00,,CLR,0.00,14.00,VWS V14.01,2013-01-25 12:20:00,
2013-01-25 07:25:00,6.0,-7.4,30.28,West,277,0.0,6.0,53,0.00,,CLR,0.00,21.00,VWS V14.01,2013-01-25 12:25:00,
2013-01-25 07:30:00,6.2,-7.3,30.29,West,269,0.0,1.0,53,0.00,,CLR,0.00,28.00,VWS V14.01,2013-01-25 12:30:00,
2013-01-25 07:35:00,6.3,-6.8,30.29,West,276,0.0,3.0,54,0.00,,CLR,0.00,39.00,VWS V14.01,2013-01-25 12:35:00,
2013-01-25 07:40:00,6.4,-7.1,30.29,WNW,302,0.0,0.0,53,0.00,,CLR,0.00,44.00,VWS V14.01,2013-01-25 12:40:00,
2013-01-25 07:45:00,6.5,-6.6,30.28,North,351,0.0,3.0,54,0.00,,CLR,0.00,53.00,VWS V14.01,2013-01-25 12:45:00,
2013-01-25 07:50:00,6.7,-6.8,30.29,WNW,301,3.0,3.0,53,0.00,,CLR,0.00,58.00,VWS V14.01,2013-01-25 12:50:00,
2013-01-25 07:55:00,6.9,-7.0,30.29,WNW,288,0.0,5.0,52,0.00,,CLR,0.00,60.00,VWS V14.01,2013-01-25 12:55:00,
2013-01-25 08:00:00,7.1,-6.4,30.29,NNW,344,1.0,1.0,53,0.00,,CLR,0.00,69.00,VWS V14.01,2013-01-25 13:00:00,
2013-01-25 08:05:00,7.2,-6.7,30.30,West,273,0.0,2.0,52,0.00,,CLR,0.00,77.00,VWS V14.01,2013-01-25 13:05:00,
2013-01-25 08:10:00,7.4,-6.1,30.30,NW,323,0.0,2.0,53,0.00,,CLR,0.00,81.00,VWS V14.01,2013-01-25 13:10:00,
2013-01-25 08:15:00,7.6,-6.7,30.30,WNW,295,0.0,4.0,51,0.00,,CLR,0.00,84.00,VWS V14.01,2013-01-25 13:15:00,
2013-01-25 08:20:00,7.8,-6.2,30.30,WSW,258,0.0,1.0,52,0.00,,CLR,0.00,97.00,VWS V14.01,2013-01-25 13:20:00,
2013-01-25 08:25:00,8.0,-6.4,30.30,WNW,287,3.0,10.0,51,0.00,,CLR,0.00,109.00,VWS V14.01,2013-01-25 13:25:00,
2013-01-25 08:30:00,8.2,-6.6,30.30,NW,314,0.0,0.0,50,0.00,,CLR,0.00,107.00,VWS V14.01,2013-01-25 13:30:00,
2013-01-25 08:35:00,8.5,-5.9,30.30,NW,320,5.0,9.0,51,0.00,,CLR,0.00,156.00,VWS V14.01,2013-01-25 13:35:00,
2013-01-25 08:40:00,8.8,-6.0,30.29,West,277,0.0,1.0,50,0.00,,CLR,0.00,188.00,VWS V14.01,2013-01-25 13:40:00,
2013-01-25 08:45:00,9.1,-6.2,30.30,West,264,3.0,9.0,49,0.00,,CLR,0.00,172.00,VWS V14.01,2013-01-25 13:45:00,
2013-01-25 08:50:00,9.3,-6.4,30.30,NW,316,2.0,7.0,48,0.00,,CLR,0.00,183.00,VWS V14.01,2013-01-25 13:50:00,
2013-01-25 08:55:00,9.6,-5.7,30.30,WNW,301,3.0,7.0,49,0.00,,CLR,0.00,179.00,VWS V14.01,2013-01-25 13:55:00,
2013-01-25 09:00:00,9.9,-5.4,30.30,NNW,333,0.0,0.0,49,0.00,,CLR,0.00,200.00,VWS V14.01,2013-01-25 14:00:00,
2013-01-25 09:05:00,9.9,-5.9,30.30,West,272,0.0,10.0,48,0.00,,CLR,0.00,211.00,VWS V14.01,2013-01-25 14:05:00,
2013-01-25 09:10:00,10.3,-5.5,30.30,WNW,291,0.0,0.0,48,0.00,,CLR,0.00,192.00,VWS V14.01,2013-01-25 14:10:00,
2013-01-25 09:15:00,10.5,-5.3,30.30,NNW,327,0.0,9.0,48,0.00,,CLR,0.00,220.00,VWS V14.01,2013-01-25 14:15:00,
2013-01-25 09:20:00,10.7,-5.6,30.30,NW,319,1.0,2.0,47,0.00,,CLR,0.00,214.00,VWS V14.01,2013-01-25 14:20:00,
2013-01-25 09:25:00,10.9,-5.4,30.30,NW,325,0.0,6.0,47,0.00,,CLR,0.00,279.00,VWS V14.01,2013-01-25 14:25:00,
2013-01-25 09:30:00,11.4,-4.5,30.30,NW,307,1.0,1.0,48,0.00,,CLR,0.00,287.00,VWS V14.01,2013-01-25 14:30:00,
2013-01-25 09:35:00,11.8,-5.0,30.31,NW,323,0.0,9.0,46,0.00,,CLR,0.00,339.00,VWS V14.01,2013-01-25 14:35:00,
2013-01-25 09:40:00,12.3,-4.1,30.31,NW,316,2.0,2.0,47,0.00,,CLR,0.00,353.00,VWS V14.01,2013-01-25 14:40:00,
2013-01-25 09:45:00,12.8,-5.0,30.31,West,267,0.0,5.0,44,0.00,,CLR,0.00,299.00,VWS V14.01,2013-01-25 14:45:00,
2013-01-25 09:50:00,13.1,-4.7,30.31,WNW,283,0.0,1.0,44,0.00,,CLR,0.00,301.00,VWS V14.01,2013-01-25 14:50:00,
2013-01-25 09:55:00,13.2,-4.6,30.31,North,360,5.0,5.0,44,0.00,,CLR,0.00,313.00,VWS V14.01,2013-01-25 14:55:00,
2013-01-25 10:00:00,13.3,-4.5,30.31,NW,310,0.0,2.0,44,0.00,,CLR,0.00,294.00,VWS V14.01,2013-01-25 15:00:00,
2013-01-25 10:05:00,13.5,-4.8,30.31,NW,308,4.0,7.0,43,0.00,,CLR,0.00,244.00,VWS V14.01,2013-01-25 15:05:00,
2013-01-25 10:10:00,13.5,-4.8,30.30,NW,319,1.0,5.0,43,0.00,,CLR,0.00,264.00,VWS V14.01,2013-01-25 15:10:00,
2013-01-25 10:15:00,13.4,-4.9,30.30,NNW,334,2.0,11.0,43,0.00,,CLR,0.00,287.00,VWS V14.01,2013-01-25 15:15:00,
2013-01-25 10:20:00,13.6,-4.7,30.30,NNW,327,0.0,1.0,43,0.00,,CLR,0.00,309.00,VWS V14.01,2013-01-25 15:20:00,
2013-01-25 10:25:00,13.9,-5.4,30.30,SW,223,0.0,6.0,41,0.00,,CLR,0.00,373.00,VWS V14.01,2013-01-25 15:25:00,
2013-01-25 10:30:00,14.3,-3.6,30.30,West,279,0.0,0.0,44,0.00,,CLR,0.00,343.00,VWS V14.01,2013-01-25 15:30:00,
2013-01-25 10:35:00,14.5,-4.4,30.30,WNW,298,5.0,10.0,42,0.00,,CLR,0.00,230.00,VWS V14.01,2013-01-25 15:35:00,
2013-01-25 10:40:00,14.5,-4.9,30.30,SW,231,0.0,3.0,41,0.00,,CLR,0.00,202.00,VWS V14.01,2013-01-25 15:40:00,
2013-01-25 10:45:00,14.5,-4.4,30.29,West,266,0.0,5.0,42,0.00,,CLR,0.00,237.00,VWS V14.01,2013-01-25 15:45:00,
2013-01-25 10:50:00,14.5,-4.9,30.29,NNW,348,1.0,4.0,41,0.00,,CLR,0.00,295.00,VWS V14.01,2013-01-25 15:50:00,
2013-01-25 10:55:00,14.8,-4.6,30.29,West,265,0.0,4.0,41,0.00,,CLR,0.00,323.00,VWS V14.01,2013-01-25 15:55:00,
2013-01-25 11:00:00,15.3,-4.2,30.29,WNW,291,0.0,1.0,41,0.00,,CLR,0.00,301.00,VWS V14.01,2013-01-25 16:00:00,
2013-01-25 11:05:00,15.7,-3.8,30.29,WNW,300,4.0,5.0,41,0.00,,CLR,0.00,431.00,VWS V14.01,2013-01-25 16:05:00,
2013-01-25 11:10:00,16.6,-3.5,30.28,North,360,3.0,3.0,40,0.00,,CLR,0.00,396.00,VWS V14.01,2013-01-25 16:10:00,
2013-01-25 11:16:00,17.0,-3.1,30.28,NNW,333,5.0,7.0,40,0.00,,CLR,0.00,269.00,VWS V14.01,2013-01-25 16:16:00,
2013-01-25 11:21:00,17.0,-3.1,30.27,NW,313,0.0,0.0,40,0.00,,CLR,0.00,309.00,VWS V14.01,2013-01-25 16:21:00,
2013-01-25 11:26:00,17.0,-4.2,30.27,NNW,334,0.0,5.0,38,0.00,,CLR,0.00,313.00,VWS V14.01,2013-01-25 16:26:00,
2013-01-25 11:31:00,17.1,-3.6,30.27,NNW,340,2.0,4.0,39,0.00,,CLR,0.00,315.00,VWS V14.01,2013-01-25 16:31:00,
2013-01-25 11:36:00,17.4,-3.3,30.27,WSW,249,0.0,4.0,39,0.00,,CLR,0.00,318.00,VWS V14.01,2013-01-25 16:36:00,
2013-01-25 11:41:00,17.7,-2.5,30.26,West,270,0.0,2.0,40,0.00,,CLR,0.00,281.00,VWS V14.01,2013-01-25 16:41:00,
2013-01-25 11:46:00,17.4,-3.8,30.26,NNW,340,0.0,4.0,38,0.00,,CLR,0.00,313.00,VWS V14.01,2013-01-25 16:46:00,
2013-01-25 11:51:00,17.4,-3.8,30.26,WNW,289,0.0,2.0,38,0.00,,CLR,0.00,385.00,VWS V14.01,2013-01-25 16:51:00,
2013-01-25 11:56:00,17.8,-4.1,30.25,NW,316,1.0,5.0,37,0.00,,CLR,0.00,366.00,VWS V14.01,2013-01-25 16:56:00,
2013-01-25 12:01:00,18.0,-4.4,30.25,North,355,0.0,3.0,36,0.00,,CLR,0.00,380.00,VWS V14.01,2013-01-25 17:01:00,
2013-01-25 12:06:00,18.4,-3.5,30.25,NW,305,2.0,4.0,37,0.00,,CLR,0.00,436.00,VWS V14.01,2013-01-25 17:06:00,
2013-01-25 12:11:00,18.9,-3.1,30.25,NNW,334,2.0,3.0,37,0.00,,CLR,0.00,383.00,VWS V14.01,2013-01-25 17:11:00,
2013-01-25 12:16:00,19.3,-3.9,30.25,NW,324,0.0,4.0,35,0.00,,CLR,0.00,455.00,VWS V14.01,2013-01-25 17:16:00,
2013-01-25 12:21:00,19.9,-3.3,30.25,NW,324,1.0,2.0,35,0.00,,CLR,0.00,455.00,VWS V14.01,2013-01-25 17:21:00,
2013-01-25 12:26:00,20.6,-2.1,30.24,West,269,0.0,3.0,36,0.00,,CLR,0.00,459.00,VWS V14.01,2013-01-25 17:26:00,
2013-01-25 12:31:00,20.9,-3.0,30.24,WNW,294,0.0,1.0,34,0.00,,CLR,0.00,619.00,VWS V14.01,2013-01-25 17:31:00,
2013-01-25 12:36:00,21.6,-1.8,30.24,NNW,343,3.0,4.0,35,0.00,,CLR,0.00,647.00,VWS V14.01,2013-01-25 17:36:00,
2013-01-25 12:41:00,22.5,-2.2,30.24,WNW,301,0.0,2.0,33,0.00,,CLR,0.00,591.00,VWS V14.01,2013-01-25 17:41:00,
2013-01-25 12:46:00,22.5,-2.9,30.23,NNW,332,0.0,5.0,32,0.00,,CLR,0.00,503.00,VWS V14.01,2013-01-25 17:46:00,
2013-01-25 12:51:00,22.3,-2.4,30.23,SW,223,1.0,4.0,33,0.00,,CLR,0.00,445.00,VWS V14.01,2013-01-25 17:51:00,
2013-01-25 12:56:00,22.3,-3.1,30.23,West,275,0.0,4.0,32,0.00,,CLR,0.00,336.00,VWS V14.01,2013-01-25 17:56:00,
2013-01-25 13:01:00,22.0,-2.7,30.23,WNW,296,0.0,3.0,33,0.00,,CLR,0.00,390.00,VWS V14.01,2013-01-25 18:01:00,
2013-01-25 13:06:00,22.0,-2.7,30.23,West,267,0.0,4.0,33,0.00,,CLR,0.00,425.00,VWS V14.01,2013-01-25 18:06:00,
2013-01-25 13:11:00,22.1,-2.6,30.22,WSW,252,1.0,5.0,33,0.00,,CLR,0.00,443.00,VWS V14.01,2013-01-25 18:11:00,
2013-01-25 13:16:00,22.4,-3.0,30.22,SW,236,0.0,5.0,32,0.00,,CLR,0.00,422.00,VWS V14.01,2013-01-25 18:16:00,
2013-01-25 13:21:00,22.5,-2.2,30.21,NNW,340,0.0,5.0,33,0.00,,CLR,0.00,380.00,VWS V14.01,2013-01-25 18:21:00,
2013-01-25 13:26:00,22.8,-2.6,30.21,NNW,346,3.0,5.0,32,0.00,,CLR,0.00,403.00,VWS V14.01,2013-01-25 18:26:00,
2013-01-25 13:31:00,23.0,-1.8,30.20,WNW,299,0.0,4.0,33,0.00,,CLR,0.00,355.00,VWS V14.01,2013-01-25 18:31:00,
2013-01-25 13:36:00,23.0,-3.8,30.20,SW,232,0.0,4.0,30,0.00,,CLR,0.00,339.00,VWS V14.01,2013-01-25 18:36:00,
2013-01-25 13:41:00,22.9,-3.2,30.20,WNW,303,0.0,0.0,31,0.00,,CLR,0.00,345.00,VWS V14.01,2013-01-25 18:41:00,
2013-01-25 13:46:00,23.1,-1.1,30.19,North,5,3.0,3.0,34,0.00,,CLR,0.00,288.00,VWS V14.01,2013-01-25 18:46:00,
2013-01-25 13:51:00,23.0,-3.1,30.19,North,350,0.0,6.0,31,0.00,,CLR,0.00,246.00,VWS V14.01,2013-01-25 18:51:00,
2013-01-25 13:56:00,22.6,-3.5,30.19,NW,309,0.0,6.0,31,0.00,,CLR,0.00,309.00,VWS V14.01,2013-01-25 18:56:00,
2013-01-25 14:01:00,22.5,-3.6,30.18,NNW,333,5.0,5.0,31,0.00,,CLR,0.00,237.00,VWS V14.01,2013-01-25 19:01:00,
2013-01-25 14:06:00,22.4,-3.0,30.18,NNW,344,0.0,5.0,32,0.00,,CLR,0.00,206.00,VWS V14.01,2013-01-25 19:06:00,
2013-01-25 14:11:00,22.0,-2.7,30.18,North,5,0.0,5.0,33,0.00,,CLR,0.00,216.00,VWS V14.01,2013-01-25 19:11:00,
2013-01-25 14:16:00,22.0,-2.7,30.18,NW,324,1.0,5.0,33,0.00,,CLR,0.00,218.00,VWS V14.01,2013-01-25 19:16:00,
2013-01-25 14:21:00,22.2,-3.2,30.17,WSW,246,0.0,2.0,32,0.00,,CLR,0.00,258.00,VWS V14.01,2013-01-25 19:21:00,
2013-01-25 14:26:00,22.5,-1.0,30.17,West,277,0.0,4.0,35,0.00,,CLR,0.00,274.00,VWS V14.01,2013-01-25 19:26:00,
2013-01-25 14:31:00,22.9,-3.2,30.17,North,355,0.0,2.0,31,0.00,,CLR,0.00,246.00,VWS V14.01,2013-01-25 19:31:00,
2013-01-25 14:36:00,23.0,-3.1,30.17,WNW,285,2.0,4.0,31,0.00,,CLR,0.00,176.00,VWS V14.01,2013-01-25 19:36:00,
2013-01-25 14:41:00,22.9,-1.9,30.17,WNW,285,0.0,1.0,33,0.00,,CLR,0.00,163.00,VWS V14.01,2013-01-25 19:41:00,
2013-01-25 14:46:00,22.6,-2.8,30.17,WNW,282,0.0,3.0,32,0.00,,CLR,0.00,148.00,VWS V14.01,2013-01-25 19:46:00,
2013-01-25 14:51:00,22.4,-3.0,30.17,NW,310,0.0,2.0,32,0.00,,CLR,0.00,151.00,VWS V14.01,2013-01-25 19:51:00,
2013-01-25 14:56:00,22.2,-3.2,30.16,WSW,257,0.0,4.0,32,0.00,,CLR,0.00,146.00,VWS V14.01,2013-01-25 19:56:00,
2013-01-25 15:01:00,22.1,-3.2,30.16,NW,310,0.0,2.0,32,0.00,,CLR,0.00,146.00,VWS V14.01,2013-01-25 20:01:00,
2013-01-25 15:06:00,22.0,-2.7,30.16,NW,309,0.0,2.0,33,0.00,,CLR,0.00,160.00,VWS V14.01,2013-01-25 20:06:00,
2013-01-25 15:11:00,22.2,-2.5,30.16,SW,224,0.0,2.0,33,0.00,,CLR,0.00,125.00,VWS V14.01,2013-01-25 20:11:00,
2013-01-25 15:16:00,22.1,-3.2,30.16,NNW,335,1.0,3.0,32,0.00,,CLR,0.00,123.00,VWS V14.01,2013-01-25 20:16:00,
2013-01-25 15:21:00,21.6,-2.4,30.16,WSW,248,2.0,2.0,34,0.00,,CLR,0.00,127.00,VWS V14.01,2013-01-25 20:21:00,
2013-01-25 15:26:00,21.5,-2.5,30.16,North,355,2.0,4.0,34,0.00,,CLR,0.00,125.00,VWS V14.01,2013-01-25 20:26:00,
2013-01-25 15:31:00,21.5,-3.8,30.16,West,273,4.0,4.0,32,0.00,,CLR,0.00,114.00,VWS V14.01,2013-01-25 20:31:00,
2013-01-25 15:36:00,21.5,-3.1,30.16,NNW,330,1.0,4.0,33,0.00,,CLR,0.00,98.00,VWS V14.01,2013-01-25 20:36:00,
2013-01-25 15:41:00,21.4,-3.2,30.16,NW,321,0.0,2.0,33,0.00,,CLR,0.00,84.00,VWS V14.01,2013-01-25 20:41:00,
2013-01-25 15:47:00,21.2,-3.4,30.16,NW,321,0.0,4.0,33,0.00,,CLR,0.00,76.00,VWS V14.01,2013-01-25 20:47:00,
2013-01-25 15:52:00,21.0,-4.2,30.16,WSW,241,0.0,2.0,32,0.00,,CLR,0.00,70.00,VWS V14.01,2013-01-25 20:52:00,
2013-01-25 15:57:00,20.8,-4.4,30.16,West,280,0.0,2.0,32,0.00,,CLR,0.00,56.00,VWS V14.01,2013-01-25 20:57:00,
2013-01-25 16:02:00,20.7,-3.2,30.16,West,271,0.0,2.0,34,0.00,,CLR,0.00,46.00,VWS V14.01,2013-01-25 21:02:00,
2013-01-25 16:07:00,20.6,-3.3,30.16,NW,319,0.0,7.0,34,0.00,,CLR,0.00,42.00,VWS V14.01,2013-01-25 21:07:00,
2013-01-25 16:12:00,20.3,-3.0,30.16,West,270,0.0,0.0,35,0.00,,CLR,0.00,32.00,VWS V14.01,2013-01-25 21:12:00,
2013-01-25 16:17:00,20.0,-3.2,30.16,NNW,342,0.0,3.0,35,0.00,,CLR,0.00,25.00,VWS V14.01,2013-01-25 21:17:00,
2013-01-25 16:22:00,19.7,-2.9,30.16,NNW,342,0.0,1.0,36,0.00,,CLR,0.00,25.00,VWS V14.01,2013-01-25 21:22:00,
2013-01-25 16:27:00,19.7,-2.9,30.16,NNW,342,0.0,1.0,36,0.00,,CLR,0.00,19.00,VWS V14.01,2013-01-25 21:27:00,
2013-01-25 16:32:00,19.5,-2.0,30.16,NNW,342,0.0,0.0,38,0.00,,CLR,0.00,12.00,VWS V14.01,2013-01-25 21:32:00,
2013-01-25 16:37:00,19.3,-3.9,30.16,NNW,342,0.0,1.0,35,0.00,,CLR,0.00,7.00,VWS V14.01,2013-01-25 21:37:00,
2013-01-25 16:42:00,19.1,-4.0,30.16,NNW,342,0.0,0.0,35,0.00,,CLR,0.00,0.00,VWS V14.01,2013-01-25 21:42:00,
2013-01-25 16:47:00,19.0,-2.4,30.16,NNW,342,0.0,1.0,38,0.00,,CLR,0.00,0.00,VWS V14.01,2013-01-25 21:47:00,
2013-01-25 16:52:00,18.8,-2.6,30.16,NNW,342,0.0,0.0,38,0.00,,CLR,0.00,0.00,VWS V14.01,2013-01-25 21:52:00,
2013-01-25 16:57:00,18.6,-2.2,30.16,NNW,335,0.0,3.0,39,0.00,,CLR,0.00,0.00,VWS V14.01,2013-01-25 21:57:00,
2013-01-25 17:02:00,18.4,-1.9,30.16,NNW,335,0.0,0.0,40,0.00,,CLR,0.00,0.00,VWS V14.01,2013-01-25 22:02:00,
2013-01-25 17:07:00,18.2,-2.6,30.16,NNW,335,0.0,0.0,39,0.00,,CLR,0.00,0.00,VWS V14.01,2013-01-25 22:07:00,
2013-01-25 17:12:00,18.1,-2.2,30.16,NNW,335,0.0,2.0,40,0.00,,CLR,0.00,0.00,VWS V14.01,2013-01-25 22:12:00,
2013-01-25 17:17:00,18.1,-2.2,30.16,NW,315,0.0,3.0,40,0.00,,CLR,0.00,0.00,VWS V14.01,2013-01-25 22:17:00,
2013-01-25 17:22:00,18.1,-2.2,30.16,NW,315,0.0,1.0,40,0.00,,CLR,0.00,0.00,VWS V14.01,2013-01-25 22:22:00,
2013-01-25 17:27:00,18.1,-2.2,30.16,NW,315,0.0,1.0,40,0.00,,CLR,0.00,0.00,VWS V14.01,2013-01-25 22:27:00,
2013-01-25 17:32:00,18.1,-2.2,30.16,NW,315,0.0,0.0,40,0.00,,CLR,0.00,0.00,VWS V14.01,2013-01-25 22:32:00,
2013-01-25 17:37:00,18.1,-3.2,30.16,NW,315,0.0,0.0,38,0.00,,CLR,0.00,0.00,VWS V14.01,2013-01-25 22:37:00,
2013-01-25 17:42:00,18.1,-2.7,30.16,NW,315,0.0,2.0,39,0.00,,CLR,0.00,0.00,VWS V14.01,2013-01-25 22:42:00,
2013-01-25 17:47:00,18.1,-2.2,30.16,NW,315,1.0,2.0,40,0.00,,CLR,0.00,0.00,VWS V14.01,2013-01-25 22:47:00,
2013-01-25 17:52:00,18.0,-1.7,30.15,NW,315,0.0,0.0,41,0.00,,CLR,0.00,0.00,VWS V14.01,2013-01-25 22:52:00,
2013-01-25 17:57:00,18.0,-2.8,30.15,NW,315,0.0,0.0,39,0.00,,CLR,0.00,0.00,VWS V14.01,2013-01-25 22:57:00,
2013-01-25 18:02:00,17.9,-2.9,30.15,NW,315,0.0,0.0,39,0.00,,BKN120,0.00,0.00,VWS V14.01,2013-01-25 23:02:00,
2013-01-25 18:07:00,17.9,-1.8,30.15,NW,315,0.0,0.0,41,0.00,,BKN120,0.00,0.00,VWS V14.01,2013-01-25 23:07:00,
2013-01-25 18:12:00,17.8,-1.4,30.14,NW,315,0.0,1.0,42,0.00,,BKN120,0.00,0.00,VWS V14.01,2013-01-25 23:12:00,
2013-01-25 18:17:00,17.8,-2.4,30.14,NW,315,0.0,1.0,40,0.00,,BKN120,0.00,0.00,VWS V14.01,2013-01-25 23:17:00,
2013-01-25 18:22:00,17.7,-0.5,30.15,NW,315,0.0,0.0,44,0.00,,BKN120,0.00,0.00,VWS V14.01,2013-01-25 23:22:00,
2013-01-25 18:27:00,17.7,-1.5,30.14,NW,315,0.0,0.0,42,0.00,,BKN120,0.00,0.00,VWS V14.01,2013-01-25 23:27:00,
2013-01-25 18:32:00,17.7,-1.0,30.14,NW,315,0.0,0.0,43,0.00,,BKN120,0.00,0.00,VWS V14.01,2013-01-25 23:32:00,
2013-01-25 18:37:00,17.6,-2.1,30.14,NW,315,0.0,0.0,41,0.00,,BKN120,0.00,0.00,VWS V14.01,2013-01-25 23:37:00,
2013-01-25 18:42:00,17.6,-1.1,30.14,NW,315,0.0,0.0,43,0.00,,BKN120,0.00,0.00,VWS V14.01,2013-01-25 23:42:00,
2013-01-25 18:47:00,17.5,-0.7,30.13,NW,315,0.0,1.0,44,0.00,,BKN120,0.00,0.00,VWS V14.01,2013-01-25 23:47:00,
2013-01-25 18:52:00,17.5,-1.2,30.13,NW,315,0.0,0.0,43,0.00,,BKN120,0.00,0.00,VWS V14.01,2013-01-25 23:52:00,
2013-01-25 18:57:00,17.5,-0.7,30.13,NW,315,0.0,0.0,44,0.00,,BKN120,0.00,0.00,VWS V14.01,2013-01-25 23:57:00,
2013-01-25 19:02:00,17.5,-0.2,30.13,NW,315,0.0,0.0,45,0.00,,OVC100,0.00,0.00,VWS V14.01,2013-01-26 00:02:00,
2013-01-25 19:07:00,17.5,-0.7,30.13,NW,315,0.0,0.0,44,0.00,,OVC100,0.00,0.00,VWS V14.01,2013-01-26 00:07:00,
2013-01-25 19:12:00,17.5,-0.2,30.13,NW,315,0.0,0.0,45,0.00,,OVC100,0.00,0.00,VWS V14.01,2013-01-26 00:12:00,
2013-01-25 19:17:00,17.6,0.8,30.13,NW,315,0.0,0.0,47,0.00,,OVC100,0.00,0.00,VWS V14.01,2013-01-26 00:17:00,
2013-01-25 19:22:00,17.6,-0.6,30.13,NW,315,0.0,0.0,44,0.00,,OVC100,0.00,0.00,VWS V14.01,2013-01-26 00:22:00,
2013-01-25 19:27:00,17.6,-0.6,30.13,NW,315,0.0,0.0,44,0.00,,OVC100,0.00,0.00,VWS V14.01,2013-01-26 00:27:00,
2013-01-25 19:32:00,17.7,-1.0,30.13,NW,315,0.0,0.0,43,0.00,,OVC100,0.00,0.00,VWS V14.01,2013-01-26 00:32:00,
2013-01-25 19:37:00,17.7,0.0,30.12,NW,315,0.0,0.0,45,0.00,,OVC100,0.00,0.00,VWS V14.01,2013-01-26 00:37:00,
2013-01-25 19:42:00,17.7,-0.5,30.12,NW,315,0.0,0.0,44,0.00,,OVC100,0.00,0.00,VWS V14.01,2013-01-26 00:42:00,
2013-01-25 19:47:00,17.7,-0.5,30.12,NW,315,0.0,0.0,44,0.00,,OVC100,0.00,0.00,VWS V14.01,2013-01-26 00:47:00,
2013-01-25 19:52:00,17.7,-0.5,30.12,NW,315,0.0,0.0,44,0.00,,OVC100,0.00,0.00,VWS V14.01,2013-01-26 00:52:00,
2013-01-25 19:57:00,17.7,0.0,30.12,NW,315,0.0,0.0,45,0.00,,OVC100,0.00,0.00,VWS V14.01,2013-01-26 00:57:00,
2013-01-25 20:02:00,17.7,-1.0,30.11,NW,315,0.0,0.0,43,0.00,,OVC090,0.00,0.00,VWS V14.01,2013-01-26 01:02:00,
2013-01-25 20:07:00,17.7,-1.5,30.11,NW,315,0.0,0.0,42,0.00,,OVC090,0.00,0.00,VWS V14.01,2013-01-26 01:07:00,
2013-01-25 20:12:00,17.7,-1.0,30.10,NW,315,0.0,0.0,43,0.00,,OVC090,0.00,0.00,VWS V14.01,2013-01-26 01:12:00,
2013-01-25 20:17:00,17.7,-0.5,30.10,NW,315,0.0,0.0,44,0.00,,OVC090,0.00,0.00,VWS V14.01,2013-01-26 01:17:00,
2013-01-25 20:22:00,17.7,0.4,30.10,NW,315,0.0,0.0,46,0.00,,OVC090,0.00,0.00,VWS V14.01,2013-01-26 01:22:00,
2013-01-25 20:27:00,17.6,0.3,30.11,NW,315,0.0,0.0,46,0.00,,OVC090,0.00,0.00,VWS V14.01,2013-01-26 01:27:00,
2013-01-25 20:32:00,17.5,0.3,30.10,NW,315,0.0,0.0,46,0.00,,OVC090,0.00,0.00,VWS V14.01,2013-01-26 01:32:00,
2013-01-25 20:37:00,17.5,0.3,30.10,NW,315,0.0,0.0,46,0.00,,OVC090,0.00,0.00,VWS V14.01,2013-01-26 01:37:00,
2013-01-25 20:42:00,17.5,-0.2,30.10,NW,315,0.0,0.0,45,0.00,,OVC090,0.00,0.00,VWS V14.01,2013-01-26 01:42:00,
2013-01-25 20:47:00,17.4,0.6,30.10,NW,315,0.0,0.0,47,0.00,,OVC090,0.00,0.00,VWS V14.01,2013-01-26 01:47:00,
2013-01-25 20:52:00,17.4,0.6,30.10,NW,315,0.0,0.0,47,0.00,,OVC090,0.00,0.00,VWS V14.01,2013-01-26 01:52:00,
2013-01-25 20:57:00,17.3,1.9,30.10,NW,315,0.0,0.0,50,0.00,,OVC090,0.00,0.00,VWS V14.01,2013-01-26 01:57:00,
2013-01-25 21:02:00,17.3,1.9,30.09,NW,315,0.0,1.0,50,0.00,,OVC080,0.00,0.00,VWS V14.01,2013-01-26 02:02:00,
2013-01-25 21:07:00,17.3,1.0,30.09,NW,315,0.0,1.0,48,0.00,,OVC080,0.00,0.00,VWS V14.01,2013-01-26 02:07:00,
2013-01-25 21:12:00,17.4,2.4,30.09,NW,315,0.0,0.0,51,0.00,,OVC080,0.00,0.00,VWS V14.01,2013-01-26 02:12:00,
2013-01-25 21:17:00,17.3,1.9,30.09,NW,315,0.0,0.0,50,0.00,,OVC080,0.00,0.00,VWS V14.01,2013-01-26 02:17:00,
2013-01-25 21:22:00,17.4,2.0,30.09,NW,315,0.0,0.0,50,0.00,,OVC080,0.00,0.00,VWS V14.01,2013-01-26 02:22:00,
2013-01-25 21:27:00,17.5,1.6,30.08,NW,315,0.0,0.0,49,0.00,,OVC080,0.00,0.00,VWS V14.01,2013-01-26 02:27:00,
2013-01-25 21:32:00,17.5,2.5,30.08,NW,315,0.0,0.0,51,0.00,,OVC080,0.00,0.00,VWS V14.01,2013-01-26 02:32:00,
2013-01-25 21:37:00,17.5,2.9,30.08,NW,315,0.0,0.0,52,0.00,,OVC080,0.00,0.00,VWS V14.01,2013-01-26 02:37:00,
2013-01-25 21:42:00,17.5,2.9,30.08,NW,315,0.0,0.0,52,0.00,,OVC080,0.00,0.00,VWS V14.01,2013-01-26 02:42:00,
2013-01-25 21:47:00,17.4,2.0,30.07,NW,315,0.0,0.0,50,0.00,,OVC080,0.00,0.00,VWS V14.01,2013-01-26 02:47:00,
2013-01-25 21:52:00,17.5,2.0,30.07,NW,315,0.0,0.0,50,0.00,,OVC080,0.00,0.00,VWS V14.01,2013-01-26 02:52:00,
2013-01-25 21:57:00,17.5,2.5,30.08,NW,315,0.0,0.0,51,0.00,,OVC080,0.00,0.00,VWS V14.01,2013-01-26 02:57:00,
2013-01-25 22:02:00,17.4,2.8,30.08,NW,315,0.0,0.0,52,0.00,,OVC075,0.00,0.00,VWS V14.01,2013-01-26 03:02:00,
2013-01-25 22:08:00,17.5,2.0,30.07,NW,315,0.0,0.0,50,0.00,,OVC075,0.00,0.00,VWS V14.01,2013-01-26 03:08:00,
2013-01-25 22:13:00,17.5,1.6,30.07,NW,315,0.0,0.0,49,0.00,,OVC075,0.00,0.00,VWS V14.01,2013-01-26 03:13:00,
2013-01-25 22:18:00,17.6,0.8,30.07,NW,315,0.0,1.0,47,0.00,,OVC075,0.00,0.00,VWS V14.01,2013-01-26 03:18:00,
2013-01-25 22:23:00,17.6,1.3,30.07,NW,315,0.0,0.0,48,0.00,,OVC075,0.00,0.00,VWS V14.01,2013-01-26 03:23:00,
2013-01-25 22:28:00,17.7,1.4,30.08,NW,315,0.0,2.0,48,0.00,,OVC075,0.00,0.00,VWS V14.01,2013-01-26 03:28:00,
2013-01-25 22:33:00,17.7,1.8,30.08,NW,315,0.0,2.0,49,0.00,,OVC075,0.00,0.00,VWS V14.01,2013-01-26 03:33:00,
2013-01-25 22:38:00,17.7,3.1,30.08,NW,315,0.0,2.0,52,0.00,,OVC075,0.00,0.00,VWS V14.01,2013-01-26 03:38:00,
2013-01-25 22:43:00,17.7,3.5,30.08,NW,315,0.0,0.0,53,0.00,,OVC075,0.00,0.00,VWS V14.01,2013-01-26 03:43:00,
2013-01-25 22:48:00,17.6,4.2,30.07,NW,315,1.0,1.0,55,0.00,,OVC075,0.00,0.00,VWS V14.01,2013-01-26 03:48:00,
2013-01-25 22:53:00,17.6,4.2,30.07,NE,46,0.0,3.0,55,0.00,,OVC075,0.00,0.00,VWS V14.01,2013-01-26 03:53:00,
2013-01-25 22:58:00,17.5,4.5,30.07,NNW,336,0.0,3.0,56,0.00,,OVC075,0.00,0.00,VWS V14.01,2013-01-26 03:58:00,
2013-01-25 23:03:00,17.3,4.3,30.07,NW,314,0.0,3.0,56,0.00,,OVC046,0.00,0.00,VWS V14.01,2013-01-26 04:03:00,
2013-01-25 23:08:00,17.2,4.6,30.08,WNW,303,0.0,3.0,57,0.00,,OVC046,0.00,0.00,VWS V14.01,2013-01-26 04:08:00,
2013-01-25 23:13:00,17.1,5.2,30.07,NW,306,0.0,3.0,59,0.00,,OVC046,0.00,0.00,VWS V14.01,2013-01-26 04:13:00,
2013-01-25 23:18:00,16.9,6.2,30.07,NW,309,2.0,5.0,62,0.00,,OVC046,0.00,0.00,VWS V14.01,2013-01-26 04:18:00,
2013-01-25 23:23:00,16.6,6.9,30.07,NE,43,1.0,2.0,65,0.00,,OVC046,0.00,0.00,VWS V14.01,2013-01-26 04:23:00,
2013-01-25 23:28:00,16.4,7.7,30.07,NW,315,0.0,2.0,68,0.00,,OVC046,0.00,0.00,VWS V14.01,2013-01-26 04:28:00,
2013-01-25 23:33:00,16.2,8.1,30.07,NE,55,0.0,3.0,70,0.00,,OVC046,0.00,0.00,VWS V14.01,2013-01-26 04:33:00,
2013-01-25 23:38:00,16.0,8.6,30.07,WNW,299,0.0,3.0,72,0.00,,OVC046,0.00,0.00,VWS V14.01,2013-01-26 04:38:00,
2013-01-25 23:43:00,15.8,9.0,30.07,NW,318,0.0,2.0,74,0.00,,OVC046,0.00,0.00,VWS V14.01,2013-01-26 04:43:00,
2013-01-25 23:48:00,15.6,9.1,30.07,North,360,1.0,3.0,75,0.00,,OVC046,0.00,0.00,VWS V14.01,2013-01-26 04:48:00,
2013-01-25 23:53:00,15.4,9.5,30.07,North,360,0.0,2.0,77,0.00,,OVC046,0.00,0.00,VWS V14.01,2013-01-26 04:53:00,
2013-01-25 23:58:00,15.3,9.7,30.07,North,360,0.0,2.0,78,0.00,,OVC046,0.00,0.00,VWS V14.01,2013-01-26 04:58:00,